Other Public Products
Issued by NWS Grand Forks, ND

Home | Current Version | Previous Version | Text Only | Print | Product List | Glossary Off
Versions: 1 2 3 4 5 6 7 8 9 10 11 12 13 14 15 16 17 18 19 20 21 22 23 24 25 26 27 28 29 30 31 32 33 34 35 36 37 38 39 40 41 42 43 44 45 46 47 48 49 50

000
FPUS83 KFGF 200931
OPUFGF
PRAIRIE TO PINES WEATHER ROUNDUP
NATIONAL WEATHER SERVICE EASTERN NORTH DAKOTA/GRAND FORKS ND
400 AM CDT SUN APR 20 2014

 **SATELLITE DATA USED TO AUGMENT SKY COVER AT AUTOMATED STATIONS**
 *****  WEATHER ACROSS EASTERN NORTH DAKOTA  *****

CITY           SKY/WX    TMP DP  RH WIND       PRES   REMARKS
GRAND FORKS    CLEAR     29  27  92 SW5       30.01R WCI  24
GRAND FORKS AF CLEAR     30  29  99 W3        30.01R
GRAND CITY NWS   N/A     32 N/A N/A SW2         N/A
BUXTON           N/A     37  37  98 S5          N/A
DEVILS LAKE    CLEAR     30  25  80 CALM      29.98S
FARGO          CLEAR     35  32  88 S3        30.02S
WAHPETON ARPT  SUNNY     37  32  81 CALM      30.03S
$$

 *****  WEATHER ACROSS CENTRAL AND WESTERN NORTH DAKOTA  *****

CITY           SKY/WX    TMP DP  RH WIND       PRES   REMARKS
JAMESTOWN      CLEAR     30  28  92 S6        30.00S WCI  24
BISMARCK       CLEAR     34  32  92 NE7       29.99S
MINOT          CLEAR     34  29  82 SE5       29.94S
MINOT AFB      CLEAR     33  33  97 S8        29.93S
GARRISON         N/A     34  30  85 E5        29.95S
WILLISTON      CLEAR     29  26  89 CALM      29.90F
DICKINSON      CLEAR     34  23  64 S9        29.91F
HETTINGER      CLEAR     29  23  78 CALM      29.95F
$$

 *****  OTHER OBSERVATIONS NORTHEAST NORTH DAKOTA  *****

CITY           SKY/WX    TMP DP  RH WIND       PRES   REMARKS
WALHALLA       FAIR      32  32 100 W5        30.01R
LANGDON        FAIR      27  25  93 CALM      29.99S
CAVALIER       FAIR      30  28  93 W3        30.01S
GRAFTON        FAIR      30  30 100 W5        30.01R
CANDO          FAIR      27  27 100 NE7       29.99S WCI  19
FORT TOTTEN      N/A     37  31  80 SE6       29.95
ROLLA          FAIR      28  28 100 CALM      29.99S
RUGBY          FAIR      28  28 100 SE6       29.97R WCI  22
 ***** THE ABOVE OBSERVATIONS ARE NON NWS ARE NOT QUALITY
        CONTROLLED AND MAY MIS-REPORT RAIN FOR SNOW...
$$

 *****  OTHER OBSERVATIONS SOUTHEAST NORTH DAKOTA *****

CITY           SKY/WX    TMP DP  RH WIND       PRES   REMARKS
COOPERSTOWN    FAIR      30  30 100 S5        30.01R
VALLEY CITY    FAIR      32  32 100 S7        30.02R
OAKES          FAIR      32  32 100 E3        30.01F
GWINNER        SUNNY     37  37 100 SE3       30.03F
SHEYENNE NWR     N/A     32  32  99 CALM      29.95S
BUFFALO          N/A     35  31  86 SE8         N/A
WYNDMERE       NOT AVBL
 ***** THE ABOVE OBSERVATIONS ARE NON NWS ARE NOT QUALITY
       CONTROLLED AND MAY MIS-REPORT RAIN FOR SNOW...
$$

  *****  WEATHER ACROSS NORTHERN MINNESOTA  *****

CITY           SKY/WX    TMP DP  RH WIND       PRES   REMARKS
FLAG ISLAND    CLEAR     32  28  86 SW6       29.98S
WARROAD        CLEAR     32  28  86 CALM      30.00S
ROSEAU         CLEAR     30  27  86 S3        30.00S
HALLOCK        CLOUDY    34  30  86 CALM      30.00R
THF RVR FALLS  CLEAR     34  30  86 CALM      30.01F
HALSTAD          N/A     32  30  94 SW5         N/A
FOSSTON        CLEAR     28  23  80 CALM      30.02F
BAUDETTE       CLEAR     33  31  92 S5        30.01R
WASKISH        CLEAR     30  28  93 CALM      30.01S FOG
CROOKSTON      CLEAR     34  30  86 S6        30.01F
$$
  *****  WEATHER ACROSS CENTRAL AND WEST MINNESOTA  *****

CITY           SKY/WX    TMP DP  RH WIND       PRES   REMARKS
BEMIDJI        CLEAR     30  29  95 CALM      30.02S
PARK RAPIDS    CLEAR     36  33  89 CALM      30.03R
WADENA         CLEAR     32  30  93 CALM      30.03S
DETROIT LAKES  CLEAR     36  34  93 SE3       30.04R
MOORHEAD       CLEAR     36  36 100 CALM      30.04R
FERGUS FALLS   CLEAR     43  34  70 E7        30.00S
ELBOW LAKE     FAIR      43  37  78 NE9       30.02S
MORRIS MN      CLEAR     39  34  81 E7        30.02R
STAPLES        CLEAR     36  34  93 CALM      30.04R
WHEATON        CLEAR     41  37  87 CALM      30.04S
$$
  *****  WEATHER ELSEWHERE ACROSS MINNESOTA  *****

CITY           SKY/WX    TMP DP  RH WIND       PRES   REMARKS
DULUTH         CLEAR     35  33  92 CALM      30.01R
INTRNTL FALLS  CLEAR     36  31  82 W5        30.00R
ELY            CLEAR     28  28 100 SW3       30.01R FOG
CLOQUET        CLEAR     28  27  93 CALM      30.02R FOG
BRAINERD       CLEAR     39  30  70 S3        30.04R
HIBBING        CLEAR     29  25  85 CALM      30.01R
ALEXANDRIA     CLEAR     43  35  73 NE7       30.04R
SAINT CLOUD    FOG       34  30  86 N8        30.03R VSB 1
MINNEAPOLIS    CLOUDY    49  49 100 CALM      30.02R
$$

  *****  WEATHER ACROSS SOUTH DAKOTA  *****

CITY           SKY/WX    TMP DP  RH WIND       PRES   REMARKS
SIOUX FALLS    CLOUDY    52  39  61 NE5       30.00R
BROOKINGS      NOT AVBL
WATERTOWN      PTCLDY    37  29  72 NE5       30.02R
HURON          CLEAR     37  31  78 CALM      30.00R
SISSETON         N/A     40  35  83 NW5       30.03S
ABERDEEN       CLEAR     36  31  82 NE7       30.01S
MITCHELL       CLEAR     39  28  64 CALM      30.02R
PIERRE         CLEAR     40  26  57 NE5       29.97F
MOBRIDGE       CLEAR     38  29  70 SE6       29.96S
RAPID CITY     CLEAR     42  29  59 S7        29.94F
$$

  *****  SOME WEATHER IN NEARBY STATES *****

CITY           SKY/WX    TMP DP  RH WIND       PRES   REMARKS
GLASGOW MT     MOCLDY    39  30  70 E13       29.82F
GREAT FALLS MT CLOUDY    48  30  49 W22       29.90R
CHEYENNE WY    PTCLDY    44  37  76 W9        30.05F
SCOTTSBLUFF NE PTCLDY    46  35  65 E8        29.99F
OMAHA NE       MOCLDY    64  45  49 S14       29.98F
DES MOINES IA  CLOUDY    61  44  53 S8        30.06S
DAVENPORT IA   PTCLDY    56  39  53 S12       30.15F
CHICAGO IL     PTCLDY    47  30  51 SE9       30.21F
EAU CLAIRE WI  CLOUDY    53  45  74 W3        30.02F
LA CROSSE WI   CLOUDY    62  38  40 S12       30.05S
$$

  *****  SOME NATIONAL WEATHER *****

CITY           SKY/WX    TMP DP  RH WIND       PRES   REMARKS
LA GUARDIA NY  MOCLDY    46  36  68 NE7       30.42R
RALEIGH NC     CLOUDY    51  37  58 NE8       30.19F
ATLANTA GA     PTCLDY    52  43  71 NE15      30.16S
NEW ORLEANS LA CLEAR     61  58  90 CALM      30.12R
OKLAHOMA CITY  MOCLDY    56  49  77 SE8       30.08F
ALBUQUERQUE NM CLOUDY    48  46  93 SE7       30.12F
SALT LAKE CITY PTCLDY    53  38  56 SE8       30.00S
LOS ANGELES CA PTCLDY    60  54  80 CALM      30.04F
BOISE ID       PTCLDY    51  31  46 NW16G25   30.12R
SEATTLE WA     MOCLDY    46  42  86 S13G22    30.22R
$$

*** WEATHER ACROSS MANITOBA...SASKATCHEWAN AND ONTARIO ***
                ***ONTARIO***

CITY           SKY/WX    TMP DP  RH WIND       PRES   REMARKS
GERALDTON      CLEAR     32  30  93 S9        29.97F WCI  24
THUNDER BAY    FOG       25  25 100 SW5       30.01S VSB 1/2 WCI  19
SIOUX LOOKOUT  CLOUDY    36  34  93 S5        29.94R
TORONTO        CLEAR     37  27  65 NE5       30.40F
BIG TROUT LK   NOT AVBL
PICKLE LAKE    NOT AVBL
DRYDEN         MOCLDY    37  32  81 SW8       29.94S
KENORA         CLEAR     32  28  86 W7        29.97R
$$
                *** MANITOBA***

CITY           SKY/WX    TMP DP  RH WIND       PRES   REMARKS
BRANDON        PTCLDY    30  28  93 SW8       29.99R WCI  23
DAUPHIN        CLOUDY    34  28  80 W7        29.96R
ISLAND LAKE    FLURRIES  32  32 100 W9        29.75R WCI  24
PILOT MOUND      N/A     28  27  93 SW5         N/A  WCI  23
THE PAS        MOCLDY    25  25 100 NW8       29.90R WCI  16
THOMPSON       LGT SNOW  30  30 100 N7        29.82R WCI  23
WINNIPEG       CLEAR     32  28  86 SW8       30.00R WCI  25
LYNN LAKE      CLOUDY    27  25  93 N3        29.87S
CHURCHILL      MOCLDY    16  14  93 E12       29.95S WCI   3
GILLAM         FLURRIES  28  28 100 NE8       29.80R WCI  20
$$
                ***SASKATCHEWAN***

CITY           SKY/WX    TMP DP  RH WIND       PRES   REMARKS
ESTEVAN        CLEAR     30  30 100 E7        29.91F WCI  23
KINDERSLEY     MOCLDY    37  32  81 SE17G23   29.76F
LLOYDMINSTER   CLOUDY    36  30  80 SE9       29.78S
PRINCE ALBERT  CLEAR     25  25 100 NE5       29.89R WCI  19
REGINA         CLEAR     28  28 100 E8        29.91S WCI  20



USA.gov is the U.S. government's official web portal to all federal, state and local government web resources and services.